Latest Coastal Weather Observations for Point Perpendicular

IDN60701

Issued at 6:21 am EST Monday 25 July 2016 (issued every 10 minutes, with the page automatically refreshed every 10 minutes)

About coastal observations | Map of coastal stations | Coastal observations for NSW | Marine services | Other Formats
Station Details ID: 068151 Name: POINT PERPENDICULAR AWS Lat: -35.09 Lon: 150.80 Height: 85.0 m
Data from the previous 72 hours. | See also: Recent months at Point Perpendicular
Date/Time
EST
Temp
°C
Wind Pressure Rain since
9am
mm
Weather Cloud Vis
km
Sea
Height
m
Swell
Dir  Spd
kts
Gust
kts
hPa Trend Height
m
Period
s
Dir
25/06:00am 10.3 - - - 1009.0 - 0.0 - - - - - - -
25/05:30am 10.1 - - - 1008.4 - 0.0 - - - - - - -
25/05:00am 10.2 - - - 1008.1 - 0.0 - - - - - - -
25/04:30am 10.4 - - - 1008.0 - 0.0 - - - - - - -
25/04:00am 10.7 - - - 1008.2 - 0.0 - - - - - - -
25/03:30am 11.1 - - - 1008.3 - 0.0 - - - - - - -
25/03:00am 10.4 - - - 1008.4 - 0.0 - - - - - - -
25/02:30am 9.6 - - - 1008.4 - 0.0 - - - - - - -
25/02:00am 9.1 - - - 1008.4 - 0.0 - - - - - - -
25/01:30am 8.8 - - - 1008.7 - 0.0 - - - - - - -
25/01:00am 8.6 - - - 1008.9 - 0.0 - - - - - - -
25/12:30am 8.7 - - - 1009.1 - 0.0 - - - - - - -
25/12:00am 9.4 - - - 1009.7 - 0.0 - - - - - - -
 
Date/Time
EST
Temp
°C
Wind Pressure Rain since
9am
mm
Weather Cloud Vis
km
Sea
Height
m
Swell
Dir  Spd
kts
Gust
kts
hPa Trend Height
m
Period
s
Dir
24/11:30pm 9.0 - - - 1010.4 - 0.0 - - - - - - -
24/11:00pm 8.6 - - - 1010.9 - 0.0 - - - - - - -
24/10:30pm 10.2 - - - 1011.3 - 0.0 - - - - - - -
24/10:00pm 9.9 - - - 1011.3 - 0.0 - - - - - - -
24/09:30pm 9.4 - - - 1011.4 - 0.0 - - - - - - -
24/09:00pm 9.3 - - - 1011.6 - 0.0 - - - - - - -
24/08:30pm 8.1 - - - 1011.8 - 0.0 - - - - - - -
24/08:00pm 8.6 - - - 1011.9 - 0.0 - - - - - - -
24/07:30pm 10.8 - - - 1011.9 - 0.0 - - - - - - -
24/07:00pm 11.2 - - - 1011.8 - 0.0 - - - - - - -
24/06:30pm 11.3 - - - 1011.6 - 0.0 - - - - - - -
24/06:00pm 11.4 - - - 1011.2 - 0.0 - - - - - - -
24/05:30pm 11.5 - - - 1011.1 - 0.0 - - - - - - -
24/05:00pm 11.6 - - - 1011.1 - 0.0 - - - - - - -
24/04:30pm 11.8 - - - 1010.6 - 0.0 - - - - - - -
24/04:00pm 12.2 - - - 1010.3 - 0.0 - - - - - - -
24/03:30pm 12.3 - - - 1010.4 - 0.0 - - - - - - -
24/03:00pm 12.5 - - - 1011.0 - 0.0 - - - - - - -
24/02:30pm 12.5 - - - 1011.3 - 0.0 - - - - - - -
24/02:00pm 12.7 - - - 1011.4 - 0.0 - - - - - - -
24/01:30pm 13.1 - - - 1011.6 - 0.0 - - - - - - -
24/01:00pm 13.2 - - - 1012.2 - 0.0 - - - - - - -
24/12:30pm 13.1 - - - 1012.6 - 0.0 - - - - - - -
24/12:00pm 12.8 - - - 1013.2 - 0.0 - - - - - - -
24/11:30am 12.4 - - - 1013.7 - 0.0 - - - - - - -
24/11:00am 12.0 - - - 1014.0 - 0.0 - - - - - - -
24/10:30am 11.2 - - - 1014.4 - 0.0 - - - - - - -
24/10:00am 10.4 - - - 1014.8 - 0.0 - - - - - - -
24/09:30am 9.4 - - - 1014.5 - 0.0 - - - - - - -
24/09:00am 8.7 - - - 1014.5 - 0.0 - - - - - - -
24/08:30am 8.2 - - - 1014.5 - 0.0 - - - - - - -
24/08:00am 7.8 - - - 1014.3 - 0.0 - - - - - - -
24/07:30am 6.7 - - - 1013.9 - 0.0 - - - - - - -
24/07:00am 6.9 - - - 1013.9 - 0.0 - - - - - - -
24/06:30am 7.2 - - - 1013.9 - 0.0 - - - - - - -
24/06:00am 7.7 - - - 1013.7 - 0.0 - - - - - - -
24/05:30am 7.9 - - - 1013.4 - 0.0 - - - - - - -
24/05:00am 8.0 - - - 1013.2 - 0.0 - - - - - - -
24/04:30am 8.0 - - - 1013.2 - 0.0 - - - - - - -
24/04:00am 8.1 - - - 1012.9 - 0.0 - - - - - - -
24/03:30am 8.1 - - - 1012.6 - 0.0 - - - - - - -
24/03:00am 8.3 - - - 1012.6 - 0.0 - - - - - - -
24/02:30am 8.4 - - - 1012.5 - 0.0 - - - - - - -
24/02:00am 8.6 - - - 1012.6 - 0.0 - - - - - - -
24/01:30am 8.9 - - - 1012.4 - 0.0 - - - - - - -
24/01:00am 9.1 - - - 1012.4 - 0.0 - - - - - - -
24/12:30am 9.3 - - - 1012.4 - 0.0 - - - - - - -
24/12:00am 9.7 - - - 1012.3 - 0.0 - - - - - - -
 
Date/Time
EST
Temp
°C
Wind Pressure Rain since
9am
mm
Weather Cloud Vis
km
Sea
Height
m
Swell
Dir  Spd
kts
Gust
kts
hPa Trend Height
m
Period
s
Dir
23/11:30pm 9.7 - - - 1012.0 - 0.0 - - - - - - -
23/11:00pm 9.9 - - - 1011.7 - 0.0 - - - - - - -
23/10:30pm 10.0 - - - 1011.9 - 0.0 - - - - - - -
23/10:00pm 10.2 - - - 1011.5 - 0.0 - - - - - - -
23/09:30pm 10.4 - - - 1010.9 - 0.0 - - - - - - -
23/09:00pm 10.7 - - - 1010.6 - 0.0 - - - - - - -
23/08:30pm 10.8 - - - 1010.4 - 0.0 - - - - - - -
23/08:00pm 11.0 - - - 1009.2 - 0.0 - - - - - - -
23/07:30pm 11.3 - - - 1008.7 - 0.0 - - - - - - -
23/07:00pm 11.4 - - - 1008.2 - 0.0 - - - - - - -
23/06:30pm 11.4 - - - 1007.8 - 0.0 - - - - - - -
23/06:00pm 11.8 - - - 1007.6 - 0.0 - - - - - - -
23/05:30pm 12.2 - - - 1005.9 - 0.0 - - - - - - -
23/05:00pm 12.5 - - - 1004.5 - 0.0 - - - - - - -
23/04:30pm 13.0 - - - 1003.2 - 0.0 - - - - - - -
23/04:00pm 13.8 - - - 1002.8 - 0.0 - - - - - - -
23/03:30pm 13.9 - - - 1002.6 - 0.0 - - - - - - -
23/03:00pm 14.1 - - - 1002.8 - 0.0 - - - - - - -
23/02:30pm 14.1 - - - 1001.8 - 0.0 - - - - - - -
23/02:00pm 14.2 - - - 1001.7 - 0.0 - - - - - - -
23/01:30pm 14.1 - - - 1001.3 - 0.0 - - - - - - -
23/01:00pm 13.9 - - - 1000.9 - 0.0 - - - - - - -
23/12:30pm 13.6 - - - 1001.3 - 0.0 - - - - - - -
23/12:00pm 13.8 - - - 1001.4 - 0.0 - - - - - - -
23/11:30am 13.5 - - - 1001.4 - 0.0 - - - - - - -
23/11:00am 13.3 - - - 1001.7 - 0.0 - - - - - - -
23/10:30am 13.1 - - - 1000.8 - 0.0 - - - - - - -
23/10:00am 12.8 - - - 1000.2 - 0.0 - - - - - - -
23/09:30am 12.8 - - - 999.1 - 0.0 - - - - - - -
23/09:00am 12.4 - - - 998.6 - 6.2 - - - - - - -
23/08:30am 12.3 - - - 998.6 - 6.2 - - - - - - -
23/08:00am 12.1 - - - 1000.0 - 6.2 - - - - - - -
23/07:30am 12.3 - - - 999.2 - 6.2 - - - - - - -
23/07:00am 12.6 - - - 998.3 - 6.2 - - - - - - -
23/06:30am 12.9 - - - 997.5 - 6.2 - - - - - - -
23/06:00am 13.6 - - - 997.5 - 6.2 - - - - - - -
23/05:30am 14.0 - - - 996.6 - 6.2 - - - - - - -
23/05:00am 14.1 - - - 996.2 - 6.2 - - - - - - -
23/04:30am 13.9 - - - 995.8 - 6.2 - - - - - - -
23/04:00am 13.8 - - - 995.6 - 6.2 - - - - - - -
23/03:30am 14.6 - - - 995.8 - 6.2 - - - - - - -
23/03:00am 15.3 - - - 995.5 - 6.2 - - - - - - -
23/02:30am 16.7 - - - 995.0 - 6.2 - - - - - - -
23/02:00am 16.4 - - - 995.2 - 6.2 - - - - - - -
23/01:30am 16.5 - - - 995.6 - 6.2 - - - - - - -
23/01:00am 16.9 - - - 996.4 - 6.2 - - - - - - -
23/12:30am 17.7 - - - 995.9 - 6.2 - - - - - - -
23/12:00am 17.4 - - - 996.3 - 6.2 - - - - - - -
 
Date/Time
EST
Temp
°C
Wind Pressure Rain since
9am
mm
Weather Cloud Vis
km
Sea
Height
m
Swell
Dir  Spd
kts
Gust
kts
hPa Trend Height
m
Period
s
Dir
22/11:30pm 18.0 - - - 996.4 - 6.2 - - - - - - -
22/11:00pm 17.7 - - - 996.7 - 6.2 - - - - - - -
22/10:30pm 17.7 - - - 996.9 - 6.2 - - - - - - -
22/10:00pm 18.0 - - - 996.9 - 4.8 - - - - - - -
22/09:30pm 18.0 - - - 996.4 - 4.8 - - - - - - -
22/09:00pm 17.9 - - - 996.7 - 4.8 - - - - - - -
22/08:30pm 18.0 - - - 996.5 - 4.8 - - - - - - -
22/08:00pm 17.2 - - - 996.8 - 4.8 - - - - - - -
22/07:30pm 17.7 - - - 997.3 - 4.6 - - - - - - -
22/07:00pm 18.5 - - - 997.6 - 3.0 - - - - - - -
22/06:30pm 20.7 - - - 997.7 - 0.0 - - - - - - -
22/06:00pm 21.9 - - - 997.0 - 0.0 - - - - - - -
22/05:30pm 21.8 - - - 996.5 - 0.0 - - - - - - -
22/05:00pm 22.0 - - - 996.0 - 0.0 - - - - - - -
22/04:30pm 21.9 - - - 996.1 - 0.0 - - - - - - -
22/04:00pm 22.2 - - - 996.3 - 0.0 - - - - - - -
22/03:30pm 22.7 - - - 996.7 - 0.0 - - - - - - -
22/03:00pm 23.5 - - - 997.2 - 0.0 - - - - - - -
22/02:30pm 23.2 - - - 997.3 - 0.0 - - - - - - -
22/02:00pm 23.6 - - - 997.0 - 0.0 - - - - - - -
22/01:30pm 23.4 - - - 998.3 - 0.0 - - - - - - -
22/01:00pm 22.6 - - - 999.1 - 0.0 - - - - - - -
22/12:30pm 19.1 - - - 1000.4 - 0.0 - - - - - - -
22/12:00pm 18.7 - - - 1001.4 - 0.0 - - - - - - -
22/11:30am 19.7 - - - 1002.3 - 0.0 - - - - - - -
22/11:00am 18.3 - - - 1003.1 - 0.0 - - - - - - -
22/10:30am 17.7 - - - 1003.8 - 0.0 - - - - - - -
22/10:00am 18.4 - - - 1004.7 - 0.0 - - - - - - -
22/09:30am 18.7 - - - 1005.4 - 0.0 - - - - - - -
22/09:00am 17.6 - - - 1006.5 - 0.0 - - - - - - -
22/08:30am 16.8 - - - 1006.8 - 0.0 - - - - - - -
22/08:00am 16.2 - - - 1007.4 - 0.0 - - - - - - -
22/07:30am 15.9 - - - 1007.5 - 0.0 - - - - - - -
22/07:00am 15.5 - - - 1007.8 - 0.0 - - - - - - -
22/06:30am 15.7 - - - 1008.1 - 0.0 - - - - - - -

Other Formats:

Comma delimited format used in spreadsheet applications
http://www.bom.gov.au/fwo/IDN60701/IDN60701.95940.axf

JavaScript Object Notation format (JSON) in row-major order
http://www.bom.gov.au/fwo/IDN60701/IDN60701.95940.json